Time,TemperatureF,DewpointF,PressureIn,WindDirection,WindDirectionDegrees,WindSpeedMPH,WindSpeedGustMPH,Humidity,HourlyPrecipIn,Conditions,Clouds,dailyrainin,SolarRadiationWatts/m^2,SoftwareType,DateUTC
2017-03-24 00:13:00,68.4,62.0,30.27,East,79,10.0,15.0,81,0.01,,,0.01,0,weatherlink.com 1.10,2017-03-24 04:13:00,
2017-03-24 00:28:00,69.6,60.0,30.27,ENE,71,6.0,20.0,72,0.01,,,0.01,0,weatherlink.com 1.10,2017-03-24 04:28:00,
2017-03-24 00:43:00,70.4,60.0,30.27,ESE,107,10.0,18.0,70,0.01,,,0.01,0,weatherlink.com 1.10,2017-03-24 04:43:00,
2017-03-24 00:58:00,70.4,60.0,30.27,East,81,8.0,15.0,70,0.01,,,0.01,0,weatherlink.com 1.10,2017-03-24 04:58:00,
2017-03-24 01:13:00,70.6,60.0,30.26,SSE,148,8.0,19.0,70,0.00,,,0.01,0,weatherlink.com 1.10,2017-03-24 05:13:00,
2017-03-24 01:28:00,70.8,61.0,30.26,ENE,76,4.0,16.0,70,0.00,,,0.01,0,weatherlink.com 1.10,2017-03-24 05:28:00,
2017-03-24 01:43:00,70.8,60.0,30.26,ENE,74,7.0,14.0,69,0.00,,,0.01,0,weatherlink.com 1.10,2017-03-24 05:43:00,
2017-03-24 01:58:00,70.8,60.0,30.26,East,97,7.0,16.0,68,0.00,,,0.01,0,weatherlink.com 1.10,2017-03-24 05:58:00,
2017-03-24 02:13:00,70.6,60.0,30.25,East,82,8.0,14.0,70,0.00,,,0.01,0,weatherlink.com 1.10,2017-03-24 06:13:00,
2017-03-24 02:28:00,70.4,60.0,30.24,ENE,78,3.0,14.0,70,0.00,,,0.01,0,weatherlink.com 1.10,2017-03-24 06:28:00,
2017-03-24 02:43:00,70.3,60.0,30.24,ENE,59,5.0,17.0,71,0.00,,,0.01,0,weatherlink.com 1.10,2017-03-24 06:43:00,
2017-03-24 02:58:00,70.3,60.0,30.24,ESE,103,7.0,15.0,70,0.00,,,0.01,0,weatherlink.com 1.10,2017-03-24 06:58:00,
2017-03-24 03:13:00,70.3,60.0,30.23,NE,53,7.0,13.0,70,0.00,,,0.01,0,weatherlink.com 1.10,2017-03-24 07:13:00,
2017-03-24 03:28:00,70.3,59.0,30.23,East,90,9.0,14.0,68,0.00,,,0.01,0,weatherlink.com 1.10,2017-03-24 07:28:00,
2017-03-24 03:43:00,70.1,60.0,30.23,ENE,63,11.0,14.0,70,0.00,,,0.01,0,weatherlink.com 1.10,2017-03-24 07:43:00,
2017-03-24 03:58:00,70.1,60.0,30.23,ENE,66,3.0,13.0,70,0.00,,,0.01,0,weatherlink.com 1.10,2017-03-24 07:58:00,
2017-03-24 04:13:00,70.1,59.0,30.23,East,86,7.0,11.0,69,0.00,,,0.01,0,weatherlink.com 1.10,2017-03-24 08:13:00,
2017-03-24 04:28:00,70.1,59.0,30.22,East,96,8.0,14.0,68,0.00,,,0.01,0,weatherlink.com 1.10,2017-03-24 08:28:00,
2017-03-24 04:43:00,70.4,60.0,30.22,ESE,105,8.0,14.0,69,0.00,,,0.01,0,weatherlink.com 1.10,2017-03-24 08:43:00,
2017-03-24 04:58:00,70.1,60.0,30.22,East,92,7.0,13.0,70,0.00,,,0.01,0,weatherlink.com 1.10,2017-03-24 08:58:00,
2017-03-24 05:13:00,70.4,59.0,30.22,East,92,4.0,15.0,67,0.00,,,0.01,0,weatherlink.com 1.10,2017-03-24 09:13:00,
2017-03-24 05:28:00,70.4,59.0,30.23,ENE,59,2.0,11.0,67,0.00,,,0.01,0,weatherlink.com 1.10,2017-03-24 09:28:00,
2017-03-24 05:43:00,70.3,59.0,30.22,ENE,72,4.0,12.0,68,0.00,,,0.01,0,weatherlink.com 1.10,2017-03-24 09:43:00,
2017-03-24 05:58:00,70.3,59.0,30.22,ENE,69,6.0,15.0,67,0.00,,,0.01,0,weatherlink.com 1.10,2017-03-24 09:58:00,
2017-03-24 06:13:00,70.4,59.0,30.23,ENE,67,6.0,12.0,68,0.00,,,0.01,0,weatherlink.com 1.10,2017-03-24 10:13:00,
2017-03-24 06:28:00,70.4,60.0,30.23,ESE,102,9.0,13.0,69,0.00,,,0.01,0,weatherlink.com 1.10,2017-03-24 10:28:00,